Location: Nairn
(57.5833°N, 3.8667°W)
Time: 20:23:23
(UTC+00:00)

Tiros 1 - Pass Details

Date: 26 November 2020
Orbit: 630 x 663 km, 48.4° (Epoch: 22 January)

Event Time Altitude Azimuth Distance (km) Brightness Sun altitude
Rises 18:57:01 0° 245° (WSW) 2,987 11.6 -24.9°
Reaches altitude 10° 18:59:38 10° 234° (SW) 2,071 10.4 -25.3°
Enters shadow 19:03:18 27° 184° (S) 1,261 8.6 -25.7°
Maximum altitude 19:03:38 27° 177° (S) 1,253 - -25.8°
Drops below altitude 10° 19:07:37 10° 120° (ESE) 2,056 - -26.3°
Sets 19:10:12 0° 108° (ESE) 2,960 - -26.7°
